{"data":{"norad_id":57830,"epoch":"2026-09-22T23:40:26.877216Z","epoch_age_seconds":94045,"freshness":"FRESH","line1":"1 57830U 23139A   26265.98642219  .00000083  00000+0  34569-4 0  9994","line2":"2 57830  85.9934 216.0650 0001939  87.4023 272.7382 14.12463904156501","mean_motion":14.12463904,"eccentricity":0.0001939,"inclination_deg":85.9934,"raan_deg":216.065,"arg_perigee_deg":87.4023,"mean_anomaly_deg":272.7382,"bstar":3.4569e-5,"rev_number":15650,"period_min":101.94950794297,"perigee_km":849.55079649747,"apogee_km":852.35423741214,"semimajor_km":7229.0895169548,"source":"CELESTRAK","updated_at":"2026-09-23T09:00:18.390301Z"}}